Regional Weather Roundup
Issued by NWS

Home | Current Version | Previous Version | Text Only | Print | Product List | Glossary On
Versions: 1 2 3 4 5 6 7 8 9 10 11 12 13 14 15 16 17 18 19 20 21 22 23 24 25 26 27 28 29 30 31 32 33 34 35 36 37 38 39 40 41 42 43 44 45 46 47 48 49 50
000
ASUS45 KPSR 241110
RWRAZ

ARIZONA REGIONAL HOURLY WEATHER ROUNDUP
NATIONAL WEATHER SERVICE PHOENIX AZ
400 AM MST THU JUL 24 2014

NOTE: FAIR INDICATES FEW OR NO CLOUDS BELOW 12,000 FEET WITH NO
SIGNIFICANT WEATHER AND/OR OBSTRUCTIONS TO VISIBILITY.

AZZ001>003-036-241200-
NORTHWEST ARIZONA

CITY           SKY/WX    TMP DP  RH WIND       PRES   REMARKS
BULLHEAD CITY  CLEAR     88  34  14 SE7       29.78S
KINGMAN        CLEAR     80  30  16 NW3       30.02S
$$

AZZ004>008-015-016-018-241200-
NORTH CENTRAL ARIZONA

CITY           SKY/WX    TMP DP  RH WIND       PRES   REMARKS
GRAND CANYON   CLOUDY    67  49  52 CALM      30.32F
WILLIAMS       MOCLDY    68  50  52 SE8       30.39S
PRESCOTT       CLOUDY    78  52  40 S6        30.18F
FLAGSTAFF      MOCLDY    63  50  62 CALM      30.37S
PAYSON         CLOUDY    75  54  46 E5        30.24S
PAGE           MOCLDY    85  50  29 W3        30.11S
$$

AZZ009>014-017-241200-
NORTHEAST ARIZONA

CITY           SKY/WX    TMP DP  RH WIND       PRES   REMARKS
WINSLOW        CLOUDY    72  62  71 E6        30.22R
SAINT JOHNS    MOCLDY    65  58  78 NE3       30.28R
WINDOW ROCK    CLEAR     58  49  72 CALM      30.38F
SHOW LOW       CLOUDY    66  50  55 S3        30.34F
$$

AZZ023-241200-
GREATER PHOENIX AREA

CITY           SKY/WX    TMP DP  RH WIND       PRES   REMARKS
PHOENIX        CLOUDY    93  65  39 E10       29.83S
BUCKEYE          N/A     95  59  30 E7        29.83S
LUKE AFB       NOT AVBL
DEER VALLEY    MOCLDY    91  61  36 E9        29.86F
SCOTTSDALE     LGT RAIN  89  66  46 N7        29.89R
MESA-GATEWAY   PTCLDY    93  55  27 NE5       29.88F
$$

AZZ027-028-241200-
SOUTHWEST MARICOPA COUNTY AND PINAL COUNTY

CITY           SKY/WX    TMP DP  RH WIND       PRES   REMARKS
CASA GRANDE    MOCLDY    91  61  35 CALM      29.88S
$$

AZZ503-504-507>509-241200-
SOUTHEAST ARIZONA

CITY           SKY/WX    TMP DP  RH WIND       PRES   REMARKS
TUCSON         PTCLDY    82  62  50 SE7       29.99F
DAVIS-MONTHAN  MOCLDY    82  59  45 SE5       29.98F
SIERRA VISTA   CLEAR     73  55  53 SW6       30.16S
DOUGLAS        CLEAR     70  53  54 NW7       30.12R
SAFFORD        CLEAR     78  58  49 E9        30.06S
$$

AZZ020-021-025-026-031-241200-
SOUTHWEST ARIZONA

CITY           SKY/WX    TMP DP  RH WIND       PRES   REMARKS
YUMA           CLEAR     93  47  20 S6        29.73F
$$

CAZ031-033-041-043-047-048-061-241200-
SOUTHERN CALIFORNIA

CITY           SKY/WX    TMP DP  RH WIND       PRES   REMARKS
DOWNTOWN L.A.  CLEAR     67  61  81 CALM      29.85F
L.A. AIRPORT   CLEAR     68  62  81 CALM      29.85F
SAN DIEGO      PTCLDY    70  65  84 CALM      29.87F
BURBANK        CLEAR     70  53  54 CALM      29.86F
ONTARIO        CLEAR     71  56  58 CALM      29.88F
RIVERSIDE      CLEAR     69  54  58 CALM      29.87F
PALM SPRINGS   CLEAR     86  48  26 S3        29.76S
EL CENTRO NAS  CLEAR     91  43  18 CALM      29.69F
IMPERIAL       CLEAR     90  48  23 N5        29.69F
BLYTHE         PTCLDY    92  44  19 SE5       29.75R
NEEDLES        CLEAR     91  29  11 NW8       29.78F
$$

NVZ020-UTZ003-241200-
SOUTHERN NEVADA-UTAH

CITY           SKY/WX    TMP DP  RH WIND       PRES   REMARKS
LAS VEGAS      PTCLDY    93  28  10 S15       29.82S
SALT LAKE CITY CLOUDY    86  43  22 SW15      29.99R
$$

NMZ009-TXZ055-241200-
NEW MEXICO-WEST TEXAS

CITY           SKY/WX    TMP DP  RH WIND       PRES   REMARKS
ALBUQUERQUE    PTCLDY    72  53  51 N6        30.31R
EL PASO        CLEAR     74  52  46 CALM      30.16S
$$


........................KEY........................
SKY/WX - SKY CONDITION/WEATHER
TMP    - TEMPERATURE IN FAHRENHEIT
DP     - DEW POINT IN FAHRENHEIT
RH     - RELATIVE HUMIDITY IN PERCENT
WIND   - DIRECTION AND SPEED IN MILES PER HOUR (MPH)
VRB    - VARIABLE WIND DIRECTION
PRES   - MEAN SEA LEVEL PRESSURE IN INCHES OF MERCURY
         F - FALLING PRESSURE   R - RISING PRESSURE
         S - STEADY PRESSURE
VSB    - VISIBILITY IN MILES
HX     - HEAT INDEX IN FAHRENHEIT
WCI    - WIND CHILL INDEX IN FAHRENHEIT
TC     - TEMPERATURE IN CELSIUS WHICH IS ALSO KNOWN AS
         TEMPERATURE IN CENTIGRADE
AFB    - AIR FORCE BASE
         LUKE AFB IS LUKE AIR FORCE BASE
         DAVIS-MONTHAN IS DAVIS-MONTHAN AIR FORCE BASE
NAS    - NAVAL AIR STATION
         EL CENTRO NAS IS EL CENTRO NAVAL AIR STATION
N/A    - NOT AVAILABLE


USA.gov is the U.S. government's official web portal to all federal, state and local government web resources and services.